[[{"header":{"parameterUnit":"m.s-1","parameterCategory":2,"la1":30.2991,"la2":30.254,"lo1":-89.0895,"lo2":-89.0444,"dy":0.0017,"dx":0.0017,"nx":28,"ny":28,"refTime":"2026-01-03T03:00:00:Z","depth":"0","parameterNumber":2,"parameterNumberName":"U-component_of_CURRENTS"},"data":[0,0,0,0,0,0,0,0,0,0,0,0,0,0,0,0,0,0,0,0,0,0,0,0,0,0,0,0,0,0,0,0,0,0,0,0,0,0,0,0,0,0,0,0,0,0,0,0,0,0,0,0,0,0,0,0,0,0,0.3148,0.3148,0,0.3182,0.3182,0.3182,0.3169,0.3169,0.3168,0.3168,0.3171,0.3171,0.3172,0,0,0,0,0,0,0,0,0,0,0,0,0,0.3108,0.3109,0.3148,0.3149,0.3149,0.3182,0.3182,0.3182,0.317,0.3169,0.3168,0.3167,0.317,0.3171,0.3172,0,0,0,0,0,0,0,0,0,0,0,0,0,0.3131,0.3109,0.3148,0.3148,0.3148,0.3182,0.3182,0.3182,0.317,0.3169,0.3168,0.3167,0.317,0.3171,0.3172,0.3196,0,0,0.3175,0.3175,0,0,0,0,0,0,0,0,0.3129,0.3132,0.3147,0.3148,0.3149,0.3172,0.3169,0.3186,0.317,0.316,0.3168,0.3167,0.317,0.3171,0.3177,0.3197,0.3197,0.3175,0.3176,0.3176,0.3176,0,0,0,0,0,0,0,0.3128,0.313,0.316,0.3148,0.3149,0.3159,0.316,0.3172,0.3168,0.3161,0.316,0.3167,0.317,0.3176,0.3177,0.3197,0.3175,0.3176,0.3176,0.3177,0.3279,0.3281,0,0,0,0,0,0,0.3126,0.3129,0.3159,0.3161,0.3138,0.316,0.3162,0.3164,0.3168,0.3169,0.3168,0.3166,0.3175,0.3176,0.3177,0.3249,0.3176,0.3177,0.3178,0.3277,0.3279,0.3281,0,0,0,0,0,0,0.3125,0.3128,0.3157,0.3147,0.3152,0.3162,0.3164,0.3165,0.3172,0.3174,0.3174,0.3174,0.3174,0.3176,0.3201,0.3247,0.3177,0.3178,0.3274,0.3277,0.328,0.3364,0,0,0,0,0,0,0.3124,0.3128,0.3133,0.3147,0.3152,0.3193,0.3165,0.3167,0.3179,0.3177,0.318,0.3179,0.3174,0.32,0.3202,0.3247,0.3179,0.3271,0.3275,0.3279,0.3359,0.337,0.3379,0,0,0,0,0,0.3122,0.3136,0.3133,0.3137,0.3158,0.3195,0.3199,0.3202,0.318,0.32,0.3197,0.3179,0.3227,0.3202,0.3204,0.325,0.3269,0.3274,0.3279,0.3354,0.3368,0.3379,0,0,0,0,0,0,0.3124,0.3137,0.3134,0.3151,0.3178,0.3194,0.3211,0.3206,0.3219,0.3212,0.32,0.3202,0.3245,0.3235,0.3208,0.3293,0.3248,0.3253,0.3304,0.3317,0.3327,0.3294,0.318,0,0,0,0,0,0.3127,0.3138,0.3159,0.3175,0.3188,0.3198,0.3211,0.3215,0.3227,0.3231,0.323,0.3238,0.3269,0.3279,0.3298,0.3338,0.3343,0.3371,0.3382,0.339,0.3366,0.3449,0.3465,0.3297,0.3297,0.3297,0,0,0.313,0.3141,0.3146,0.3176,0.3191,0.3221,0.3204,0.3232,0.3257,0.323,0.3259,0.3273,0.3287,0.3339,0.3358,0.3334,0.3443,0.3396,0.3404,0.3374,0.3456,0.3472,0.3487,0.33,0.33,0.3299,0,0,0.3149,0.3156,0.3173,0.3199,0.323,0.3244,0.3253,0.3274,0.3287,0.3323,0.3317,0.3349,0.3383,0.3407,0.3423,0.3498,0.3497,0.3516,0.354,0.3624,0.3638,0.365,0.3686,0.3701,0.3521,0.3521,0.3521,0,0.3154,0.3173,0.3188,0.3217,0.3239,0.3253,0.3283,0.3309,0.3336,0.3356,0.3342,0.3416,0.3415,0.3493,0.3508,0.3521,0.3552,0.3494,0.3637,0.365,0.3661,0.3694,0.371,0.3525,0.3525,0.3524,0.3524,0,0.3185,0.3205,0.3222,0.3257,0.329,0.3321,0.3358,0.3391,0.3402,0.3422,0.3495,0.3513,0.3553,0.3575,0.3552,0.3644,0.3636,0.3644,0.3604,0.3683,0.3713,0.3727,0.3532,0.353,0.3529,0.3528,0,0,0.3178,0.3231,0.3235,0.3251,0.331,0.3334,0.3398,0.3456,0.349,0.3536,0.3593,0.364,0.3645,0.3661,0.3672,0.3719,0.3816,0.3705,0.3707,0.3734,0.3979,0.3855,0.3858,0.3867,0.387,0.3872,0.397,0,0.3194,0.324,0.327,0.3316,0.3342,0.3388,0.3444,0.35,0.3548,0.3609,0.3661,0.3717,0.3688,0.3716,0.3767,0.3808,0.3856,0.3785,0.39,0.3902,0.3779,0.3872,0.3656,0.3715,0.3984,0.3987,0.3988,0,0.3206,0.3236,0.3278,0.3336,0.3352,0.3385,0.347,0.3525,0.3626,0.3665,0.3745,0.3785,0.3864,0.3829,0.3951,0.3916,0.3936,0.396,0.3966,0.3819,0.3804,0.3679,0.3731,0.3632,0.401,0.4008,0.4007,0,0.3172,0.3235,0.3261,0.3282,0.3358,0.3389,0.3437,0.3535,0.3596,0.3706,0.3772,0.3871,0.3932,0.4005,0.4039,0.4016,0.4161,0.4151,0.4062,0.4053,0.3867,0.3836,0.3821,0.4232,0.4232,0.4231,0.4231,0,0.3164,0.3182,0.3241,0.3253,0.3294,0.3361,0.3426,0.3491,0.3611,0.3695,0.3794,0.3882,0.398,0.4074,0.4093,0.4118,0.4224,0.4063,0.4078,0.3889,0.386,0.376,0.3727,0.4235,0.4234,0.4234,0.4233,0,0.3116,0.3153,0.3184,0.3255,0.3272,0.3303,0.341,0.3472,0.359,0.3715,0.3762,0.3916,0.4025,0.4111,0.4215,0.4173,0.4089,0.4196,0.3934,0.3913,0.3682,0.3661,0.3542,0.3449,0.4106,0.4104,0.4102,0,0.3095,0.3105,0.3164,0.3184,0.321,0.3268,0.3318,0.3437,0.3514,0.3731,0.379,0.3941,0.4017,0.4121,0.4069,0.4089,0.4016,0.3889,0.3783,0.3633,0.3625,0.353,0.3455,0.3586,0.358,0.3575,0.3571,0,0.3067,0.3083,0.3113,0.3153,0.319,0.3233,0.3314,0.337,0.3533,0.3633,0.3776,0.3859,0.3936,0.383,0.3829,0.3814,0.3671,0.3783,0.3722,0.3277,0.3081,0.3008,0.3543,0.3527,0.3532,0.3535,0.3537,0.3539,0.3052,0.306,0.3103,0.3125,0.3165,0.3196,0.3194,0.3289,0.3374,0.3475,0.364,0.3651,0.3619,0.3559,0.3531,0.3297,0.3357,0.3162,0.3171,0.3107,0.2925,0.3325,0.3266,0.3269,0.3272,0.3274,0.3276,0,0.3047,0.3055,0.3079,0.3093,0.309,0.3132,0.3184,0.3154,0.3176,0.3265,0.3327,0.3234,0.3108,0.3069,0.2865,0.2712,0.2617,0.2638,0.247,0.2447,0.2883,0.2766,0.2479,0.2479,0.2479,0.2479,0.2479,0.2479,0.3053,0.3057,0.3049,0.3013,0.3008,0.2951,0.2942,0.2902,0.2908,0.2809,0.2709,0.2713,0.2731,0.26,0.2388,0.2322,0.2185,0.2029,0.2118,0.2432,0.2481,0.2529,0.2412,0.2056,0.2055,0.1545,0.1541,0.1538]},{"header":{"parameterUnit":"m.s-1","parameterCategory":2,"la1":30.2991,"la2":30.254,"lo1":-89.0895,"lo2":-89.0444,"dy":0.0017,"dx":0.0017,"nx":28,"ny":28,"refTime":"2026-01-03T03:00:00:Z","depth":"0","parameterNumber":3,"parameterNumberName":"V-component_of_CURRENTS"},"data":[0,0,0,0,0,0,0,0,0,0,0,0,0,0,0,0,0,0,0,0,0,0,0,0,0,0,0,0,0,0,0,0,0,0,0,0,0,0,0,0,0,0,0,0,0,0,0,0,0,0,0,0,0,0,0,0,0,0,0.015,0.015,0,0.0121,0.012,0.012,0.0095,0.0094,0.0094,0.0094,0.0049,0.0048,0.0048,0,0,0,0,0,0,0,0,0,0,0,0,0,0.015,0.0151,0.015,0.015,0.0149,0.0121,0.012,0.012,0.0095,0.0094,0.0094,0.0094,0.005,0.0049,0.0047,0,0,0,0,0,0,0,0,0,0,0,0,0,0.0139,0.0151,0.015,0.0133,0.0132,0.0121,0.012,0.012,0.0095,0.0094,0.0094,0.0094,0.005,0.0049,0.0047,0.0047,0,0,0.0043,0.0042,0,0,0,0,0,0,0,0,0.0139,0.0139,0.0136,0.0135,0.0133,0.0111,0.0104,0.0095,0.0095,0.0109,0.0094,0.0093,0.0069,0.0066,0.0061,0.0045,0.0043,0.0043,0.0042,0.0041,0.0041,0,0,0,0,0,0,0,0.014,0.014,0.0138,0.0136,0.0134,0.0116,0.0114,0.0102,0.0091,0.0107,0.0105,0.0103,0.0068,0.0063,0.006,0.0042,0.0043,0.0042,0.0041,0.004,0.0028,0.0028,0,0,0,0,0,0,0.0147,0.0141,0.0139,0.0137,0.0135,0.0116,0.0114,0.0118,0.0091,0.0087,0.0103,0.0102,0.0065,0.0062,0.0058,0.0078,0.0041,0.004,0.0039,0.0027,0.0028,0.0028,0,0,0,0,0,0,0.0147,0.0147,0.014,0.0138,0.0136,0.0117,0.0122,0.0118,0.0113,0.0088,0.0084,0.0102,0.0065,0.006,0.0054,0.0075,0.004,0.0038,0.0026,0.0027,0.0028,0.0102,0,0,0,0,0,0,0.0147,0.0148,0.0151,0.0139,0.0136,0.0145,0.0122,0.0118,0.0112,0.011,0.0086,0.0081,0.0064,0.0057,0.0053,0.0072,0.0037,0.0026,0.0027,0.0028,0.0099,0.0106,0.0111,0,0,0,0,0,0.0147,0.0161,0.0152,0.0151,0.0143,0.0146,0.0143,0.0127,0.0112,0.0119,0.01,0.0082,0.006,0.0056,0.0051,0.0071,0.0025,0.0027,0.0028,0.0097,0.0104,0.0111,0,0,0,0,0,0,0.0163,0.0159,0.0149,0.016,0.0156,0.0142,0.0144,0.0131,0.012,0.0117,0.0089,0.0084,0.0086,0.0065,0.0061,0.0068,0.0039,0.004,0.0093,0.01,0.0106,0.0127,0.0036,0,0,0,0,0,0.0168,0.0176,0.0168,0.0176,0.0176,0.0159,0.0156,0.0148,0.0137,0.0131,0.0113,0.0094,0.0087,0.0083,0.007,0.0075,0.0065,0.0083,0.0089,0.0094,0.0107,0.0118,0.0127,0.0032,0.0032,0.0032,0,0,0.0174,0.0173,0.0177,0.0179,0.0173,0.0187,0.0157,0.0161,0.0177,0.0128,0.0139,0.0114,0.0091,0.0099,0.0098,0.0085,0.0113,0.0095,0.01,0.011,0.0121,0.013,0.0139,0.0033,0.0032,0.0032,0,0,0.0201,0.0193,0.0213,0.0216,0.0214,0.0207,0.021,0.02,0.0201,0.0205,0.0177,0.0167,0.0149,0.0144,0.0138,0.0168,0.0142,0.0155,0.0206,0.0217,0.0226,0.0233,0.0226,0.0232,0.016,0.016,0.0161,0,0.0209,0.0235,0.0218,0.0241,0.0251,0.022,0.0249,0.0247,0.0236,0.0247,0.022,0.0206,0.0177,0.0202,0.0203,0.0184,0.0177,0.0184,0.0227,0.0234,0.0241,0.0231,0.0237,0.0164,0.0164,0.0163,0.0163,0,0.0256,0.0274,0.0287,0.0307,0.0314,0.0333,0.0331,0.0338,0.0326,0.0321,0.0336,0.03,0.0296,0.028,0.0247,0.0278,0.0253,0.0234,0.0215,0.0255,0.0242,0.0247,0.0169,0.0168,0.0167,0.0166,0,0,0.0283,0.0316,0.032,0.0348,0.0354,0.0371,0.0399,0.0423,0.0455,0.0432,0.0477,0.044,0.0413,0.0404,0.0365,0.0362,0.0382,0.0315,0.0314,0.0318,0.0396,0.0362,0.0363,0.0372,0.0374,0.0375,0.0367,0,0.0327,0.039,0.039,0.0448,0.0482,0.0472,0.0509,0.0524,0.0525,0.0557,0.0528,0.0547,0.0465,0.047,0.0453,0.0409,0.04,0.0386,0.0348,0.0347,0.032,0.0369,0.0371,0.0363,0.0371,0.0372,0.0373,0,0.0377,0.0416,0.0483,0.054,0.0555,0.0582,0.0638,0.0668,0.0695,0.0701,0.0702,0.0675,0.067,0.0598,0.0548,0.0542,0.0473,0.0428,0.0427,0.0375,0.0322,0.0324,0.0371,0.0266,0.038,0.0379,0.0379,0,0.0418,0.0481,0.054,0.0558,0.0613,0.0648,0.0678,0.0712,0.0764,0.0798,0.0841,0.0809,0.0818,0.0742,0.0628,0.0595,0.0573,0.0521,0.0425,0.0421,0.0406,0.0398,0.0359,0.0491,0.0491,0.0491,0.0491,0,0.047,0.0518,0.0568,0.0602,0.0689,0.0706,0.0796,0.082,0.0883,0.0972,0.0921,0.0984,0.0855,0.0819,0.0693,0.0584,0.0626,0.045,0.0428,0.0428,0.0423,0.0316,0.0237,0.049,0.049,0.0491,0.0491,0,0.0506,0.0534,0.0611,0.0683,0.071,0.0774,0.0875,0.0948,0.0992,0.1112,0.1138,0.1127,0.1084,0.0947,0.0828,0.0681,0.0509,0.0519,0.0516,0.0494,0.0284,0.0208,0.0137,0.0098,0.0415,0.0414,0.0413,0,0.053,0.0573,0.0668,0.0725,0.076,0.0855,0.0932,0.0997,0.1085,0.1214,0.1288,0.1278,0.1305,0.1107,0.0852,0.0646,0.0516,0.0479,0.0409,0.0291,0.019,0.0143,0.0113,0.0413,0.0412,0.0412,0.0411,0,0.0581,0.061,0.0675,0.0793,0.0879,0.0989,0.1103,0.1191,0.1301,0.1422,0.1563,0.16,0.1404,0.1189,0.087,0.0711,0.0403,0.0461,0.0355,0.0205,0.0137,0.0083,0.0382,0.0407,0.0408,0.0408,0.0408,0.0408,0.0616,0.067,0.0756,0.0869,0.0976,0.1117,0.1223,0.1368,0.1542,0.1744,0.1756,0.1842,0.1482,0.1052,0.0827,0.0377,0.0372,0.0231,0.0154,0.0123,0.0071,0.0348,0.0334,0.0334,0.0334,0.0334,0.0334,0,0.0665,0.0727,0.0832,0.097,0.1095,0.1143,0.1337,0.1469,0.1696,0.1873,0.2011,0.1857,0.146,0.1023,0.0401,0.012,0.0035,-0.0028,-0.0086,-0.0099,0.0172,0.0157,0.0085,0.0085,0.0085,0.0085,0.0085,0.0085,0.0692,0.079,0.0844,0.1043,0.1147,0.1324,0.1442,0.1652,0.1813,0.2027,0.2063,0.2054,0.1668,0.0642,0.0001,-0.0136,-0.0303,-0.0361,-0.0432,-0.0255,-0.0237,-0.0219,-0.0248,-0.0404,-0.0405,-0.0645,-0.0648,-0.065]}],[{"header":{"parameterUnit":"m.s-1","parameterCategory":2,"la1":30.2991,"la2":30.254,"lo1":-89.0895,"lo2":-89.0444,"dy":0.0017,"dx":0.0017,"nx":28,"ny":28,"refTime":"2026-01-03T03:00:00:Z","depth":"2","parameterNumber":2,"parameterNumberName":"U-component_of_CURRENTS"},"data":[0,0,0,0,0,0,0,0,0,0,0,0,0,0,0,0,0,0,0,0,0,0,0,0,0,0,0,0,0,0,0,0,0,0,0,0,0,0,0,0,0,0,0,0,0,0,0,0,0,0,0,0,0,0,0,0,0,0,0.2369,0.2369,0,0.2379,0.2379,0.2379,0.2383,0.2383,0.2383,0.2383,0.2389,0.2389,0.2389,0,0,0,0,0,0,0,0,0,0,0,0,0,0.2366,0.2366,0.2369,0.2369,0.2369,0.2379,0.2379,0.2379,0.2383,0.2383,0.2383,0.2383,0.2389,0.2389,0.2389,0,0,0,0,0,0,0,0,0,0,0,0,0,0.237,0.2366,0.2369,0.2372,0.2372,0.2379,0.2379,0.2379,0.2383,0.2383,0.2383,0.2383,0.2389,0.2389,0.2389,0.2392,0,0,0.239,0.239,0,0,0,0,0,0,0,0,0.237,0.237,0.2371,0.2372,0.2372,0.238,0.238,0.2383,0.2383,0.2378,0.2383,0.2383,0.2386,0.2386,0.2388,0.2392,0.2392,0.239,0.239,0.2391,0.2391,0,0,0,0,0,0,0,0.237,0.237,0.2372,0.2372,0.2372,0.2378,0.2378,0.2381,0.2382,0.2379,0.2379,0.2381,0.2386,0.2388,0.2388,0.2392,0.239,0.239,0.2391,0.2391,0.2478,0.248,0,0,0,0,0,0,0.2368,0.237,0.2372,0.2373,0.2371,0.2378,0.2378,0.2377,0.2382,0.2383,0.2381,0.2381,0.2387,0.2388,0.2388,0.2448,0.2391,0.2391,0.2391,0.2476,0.2478,0.248,0,0,0,0,0,0,0.2368,0.2368,0.2372,0.2372,0.2373,0.2378,0.2377,0.2377,0.239,0.2383,0.2384,0.2393,0.2387,0.2388,0.2417,0.2446,0.2391,0.2391,0.2473,0.2476,0.2479,0.2531,0,0,0,0,0,0,0.2368,0.2368,0.2373,0.2372,0.2373,0.2395,0.2377,0.2378,0.239,0.2391,0.2394,0.2394,0.2387,0.2417,0.2417,0.2445,0.2391,0.247,0.2475,0.2478,0.2527,0.2536,0.2543,0,0,0,0,0,0.2368,0.2372,0.2373,0.2374,0.2377,0.2396,0.2398,0.2401,0.2391,0.2409,0.2415,0.2395,0.2443,0.2418,0.2418,0.2448,0.2468,0.2473,0.2478,0.2523,0.2534,0.2543,0,0,0,0,0,0,0.2375,0.2373,0.2374,0.2379,0.2396,0.2397,0.241,0.2408,0.2425,0.2427,0.2415,0.2417,0.2456,0.2449,0.2423,0.2489,0.2455,0.246,0.2489,0.2499,0.2507,0.2505,0.2392,0,0,0,0,0,0.2378,0.2382,0.2389,0.2397,0.2406,0.241,0.2418,0.2424,0.2433,0.244,0.2441,0.2452,0.2475,0.2484,0.2499,0.2528,0.2535,0.2551,0.256,0.2566,0.2567,0.2622,0.2635,0.2496,0.2496,0.2496,0,0,0.2382,0.2383,0.2385,0.2399,0.2409,0.2426,0.2415,0.2437,0.2457,0.2439,0.2467,0.248,0.2491,0.253,0.2547,0.2527,0.2612,0.2573,0.2578,0.2575,0.2628,0.2641,0.2653,0.25,0.2499,0.2498,0,0,0.2391,0.2396,0.2404,0.242,0.2442,0.2449,0.2459,0.2472,0.2488,0.2522,0.2518,0.2551,0.2575,0.2591,0.2601,0.2665,0.2656,0.2675,0.2709,0.2763,0.2774,0.2784,0.2812,0.2824,0.2676,0.2676,0.2677,0,0.2399,0.2404,0.2413,0.2429,0.2444,0.246,0.2481,0.2501,0.2524,0.2546,0.2544,0.2607,0.2606,0.266,0.268,0.2682,0.2705,0.2666,0.2772,0.2783,0.2792,0.2818,0.2831,0.268,0.2679,0.2679,0.2679,0,0.2411,0.2422,0.2432,0.2454,0.2479,0.2501,0.253,0.2561,0.2582,0.2602,0.2669,0.2687,0.2726,0.2735,0.2722,0.2793,0.2785,0.2777,0.2741,0.2809,0.2833,0.2845,0.2684,0.2683,0.2682,0.2681,0,0,0.2405,0.2433,0.2437,0.2449,0.2494,0.251,0.2563,0.2611,0.2648,0.2692,0.2748,0.2791,0.2808,0.2822,0.2825,0.286,0.2935,0.2845,0.2847,0.2863,0.3046,0.2941,0.2943,0.2952,0.2955,0.2957,0.3036,0,0.2413,0.2435,0.2456,0.2488,0.2504,0.2547,0.2589,0.2641,0.2696,0.2754,0.2803,0.2851,0.2842,0.2865,0.291,0.2929,0.2971,0.2913,0.2987,0.2989,0.2879,0.2955,0.2701,0.2742,0.3047,0.3049,0.3051,0,0.241,0.2428,0.2456,0.2499,0.2512,0.2541,0.2622,0.2665,0.2758,0.2801,0.2881,0.2917,0.2984,0.2963,0.3058,0.3026,0.3043,0.3054,0.3058,0.2947,0.2906,0.2726,0.2752,0.3071,0.3069,0.3068,0.3067,0,0.2382,0.2423,0.2443,0.2458,0.2514,0.2549,0.2591,0.2682,0.2736,0.2836,0.2898,0.2983,0.304,0.309,0.312,0.3101,0.3212,0.319,0.3116,0.3108,0.2897,0.2866,0.3263,0.3263,0.3263,0.3263,0.3262,0,0.2365,0.2379,0.2431,0.2438,0.2474,0.2531,0.2598,0.265,0.276,0.2822,0.2921,0.2989,0.3079,0.3152,0.3161,0.3177,0.3257,0.3134,0.313,0.2908,0.2878,0.3162,0.3149,0.3266,0.3265,0.3264,0.3264,0,0.232,0.2351,0.2372,0.2434,0.2455,0.2483,0.2586,0.2639,0.2747,0.2844,0.2878,0.3022,0.3104,0.3179,0.3253,0.3223,0.324,0.3222,0.2941,0.2901,0.3091,0.308,0.3156,0.3153,0.315,0.3148,0.3147,0,0.2296,0.2304,0.2356,0.2373,0.2401,0.2459,0.2502,0.2609,0.2663,0.2844,0.2873,0.3016,0.3073,0.316,0.312,0.3127,0.3209,0.2885,0.2795,0.3095,0.3085,0.3077,0.307,0.2543,0.2536,0.2531,0.2527,0,0.2256,0.2276,0.2294,0.2329,0.2367,0.24,0.2465,0.2501,0.2626,0.2709,0.2801,0.2873,0.297,0.2855,0.2875,0.2838,0.2859,0.2775,0.3189,0.26,0.2521,0.2509,0.2522,0.2479,0.2484,0.2487,0.249,0.2492,0.2227,0.2228,0.2256,0.2275,0.2311,0.2315,0.2311,0.2377,0.2425,0.2499,0.2629,0.2649,0.2677,0.2574,0.2484,0.241,0.261,0.2481,0.2496,0.2517,0.2423,0.2343,0.225,0.2253,0.2256,0.2258,0.226,0,0.2178,0.2184,0.2204,0.2206,0.2194,0.2248,0.2261,0.222,0.2209,0.2304,0.2352,0.2173,0.2107,0.2145,0.1952,0.193,0.1905,0.185,0.1796,0.1845,0.1888,0.176,0.1412,0.141,0.1407,0.1405,0,0,0.2154,0.2135,0.2131,0.2074,0.2084,0.2017,0.1996,0.1947,0.1956,0.1911,0.1901,0.2063,0.2111,0.1759,0.1688,0.1521,0.1679,0.1458,0.2141,0.2131,0.2171,0.2256,0.2114,0,0,0,0,0]},{"header":{"parameterUnit":"m.s-1","parameterCategory":2,"la1":30.2991,"la2":30.254,"lo1":-89.0895,"lo2":-89.0444,"dy":0.0017,"dx":0.0017,"nx":28,"ny":28,"refTime":"2026-01-03T03:00:00:Z","depth":"2","parameterNumber":3,"parameterNumberName":"V-component_of_CURRENTS"},"data":[0,0,0,0,0,0,0,0,0,0,0,0,0,0,0,0,0,0,0,0,0,0,0,0,0,0,0,0,0,0,0,0,0,0,0,0,0,0,0,0,0,0,0,0,0,0,0,0,0,0,0,0,0,0,0,0,0,0,0.0139,0.0139,0,0.0118,0.0118,0.0118,0.0099,0.0098,0.0098,0.0098,0.0065,0.0065,0.0064,0,0,0,0,0,0,0,0,0,0,0,0,0,0.0133,0.0133,0.014,0.0139,0.0139,0.0118,0.0118,0.0118,0.0099,0.0098,0.0098,0.0098,0.0065,0.0065,0.0064,0,0,0,0,0,0,0,0,0,0,0,0,0,0.0127,0.0133,0.014,0.0127,0.0125,0.0119,0.0118,0.0118,0.0099,0.0098,0.0098,0.0098,0.0066,0.0065,0.0064,0.0066,0,0,0.0061,0.0061,0,0,0,0,0,0,0,0,0.0127,0.0127,0.0129,0.0128,0.0126,0.011,0.0104,0.01,0.0099,0.0109,0.0098,0.0097,0.0079,0.0077,0.0075,0.0064,0.0063,0.0061,0.006,0.006,0.006,0,0,0,0,0,0,0,0.0127,0.0127,0.0131,0.0129,0.0127,0.0112,0.0111,0.0103,0.0097,0.0108,0.0107,0.0104,0.0078,0.0076,0.0074,0.0062,0.0061,0.006,0.0059,0.0059,0.0052,0.0052,0,0,0,0,0,0,0.0132,0.0128,0.0132,0.0131,0.0125,0.0112,0.0111,0.0116,0.0097,0.0094,0.0104,0.0103,0.0077,0.0075,0.0073,0.0088,0.006,0.0059,0.0058,0.0052,0.0052,0.0053,0,0,0,0,0,0,0.0132,0.0133,0.0133,0.0128,0.0127,0.0113,0.0119,0.0116,0.0112,0.0094,0.0091,0.0103,0.0077,0.0074,0.007,0.0086,0.0059,0.0058,0.0051,0.0052,0.0052,0.0109,0,0,0,0,0,0,0.0132,0.0133,0.0137,0.0129,0.0128,0.0138,0.0119,0.0116,0.0111,0.0109,0.0092,0.0088,0.0077,0.0072,0.0069,0.0084,0.0057,0.0051,0.0052,0.0052,0.0107,0.0111,0.0116,0,0,0,0,0,0.0132,0.0144,0.0138,0.0138,0.0134,0.0138,0.0137,0.0124,0.0111,0.0117,0.0103,0.0089,0.0074,0.0072,0.0068,0.0083,0.005,0.0051,0.0052,0.0105,0.0111,0.0115,0,0,0,0,0,0,0.0143,0.0143,0.0136,0.0147,0.0145,0.0135,0.0138,0.0126,0.0119,0.0116,0.0095,0.0091,0.0094,0.0078,0.0075,0.0082,0.006,0.006,0.0101,0.0106,0.011,0.0126,0.0056,0,0,0,0,0,0.0147,0.0157,0.0152,0.016,0.0161,0.0148,0.0146,0.014,0.0132,0.0128,0.0114,0.01,0.0095,0.0092,0.0084,0.0088,0.0071,0.0094,0.0099,0.0102,0.0112,0.01,0.0104,0.0055,0.0055,0.0055,0,0,0.0152,0.0153,0.0158,0.0163,0.0158,0.0172,0.0146,0.0151,0.0164,0.0126,0.0136,0.0115,0.0099,0.0106,0.0106,0.0095,0.0106,0.0104,0.0107,0.0115,0.0101,0.0106,0.011,0.0056,0.0056,0.0056,0,0,0.0174,0.017,0.0188,0.0192,0.0193,0.0188,0.019,0.0183,0.0184,0.0189,0.0166,0.0155,0.0145,0.0139,0.0134,0.0157,0.0129,0.015,0.0188,0.0176,0.018,0.0183,0.0164,0.0165,0.0153,0.0153,0.0153,0,0.0179,0.0203,0.0192,0.0213,0.0223,0.0198,0.0224,0.0222,0.0214,0.0221,0.0201,0.0186,0.0165,0.018,0.0183,0.0169,0.0153,0.0171,0.0183,0.0186,0.0188,0.0167,0.0168,0.0156,0.0156,0.0155,0.0155,0,0.0218,0.0236,0.0247,0.0267,0.0275,0.0292,0.0292,0.0297,0.0287,0.0282,0.0289,0.0259,0.0251,0.024,0.0218,0.0229,0.0207,0.019,0.0172,0.0197,0.0173,0.0173,0.016,0.0159,0.0158,0.0157,0,0,0.0236,0.027,0.0274,0.0299,0.0309,0.0325,0.0347,0.0366,0.0389,0.0367,0.0394,0.0367,0.0339,0.0331,0.03,0.0285,0.0278,0.0246,0.0244,0.0233,0.0246,0.0213,0.0209,0.0261,0.0262,0.0262,0.022,0,0.0272,0.0328,0.0331,0.0382,0.0414,0.0407,0.0437,0.0448,0.0446,0.0463,0.0431,0.0439,0.0379,0.0377,0.0351,0.0301,0.028,0.029,0.0218,0.0216,0.019,0.0209,0.0219,0.0182,0.022,0.022,0.022,0,0.0311,0.0348,0.0408,0.0461,0.0474,0.0497,0.0542,0.0568,0.0578,0.0578,0.0565,0.0533,0.051,0.0456,0.0381,0.0389,0.0322,0.0276,0.0273,0.0225,0.0184,0.0163,0.0179,0.0219,0.0219,0.0219,0.0219,0,0.0344,0.0401,0.0455,0.0472,0.0523,0.0552,0.0579,0.0602,0.0645,0.065,0.0676,0.0624,0.0619,0.053,0.0415,0.0401,0.0331,0.03,0.0208,0.0204,0.019,0.0185,0.0249,0.0249,0.0249,0.0249,0.025,0,0.0386,0.0429,0.0477,0.051,0.0584,0.0602,0.0678,0.0692,0.0737,0.0802,0.0739,0.0772,0.0638,0.0575,0.0453,0.0331,0.0356,0.0221,0.0196,0.0209,0.0206,0.022,0.0217,0.0248,0.0248,0.0248,0.0249,0,0.0414,0.0442,0.0512,0.0578,0.0602,0.0659,0.0751,0.0813,0.0838,0.0921,0.093,0.089,0.0807,0.0661,0.0519,0.0396,0.0273,0.022,0.0237,0.0214,0.0143,0.0144,0.012,0.0119,0.0118,0.0117,0.0116,0,0.0434,0.0473,0.0562,0.0615,0.0647,0.0734,0.0805,0.0858,0.0931,0.1001,0.1051,0.0993,0.0966,0.0738,0.0511,0.0299,0.027,0.0158,0.013,0.0155,0.0132,0.0135,0.0137,0.013,0.013,0.0129,0.0129,0,0.0476,0.0504,0.0565,0.0676,0.0757,0.086,0.096,0.1033,0.1112,0.1179,0.1243,0.1224,0.1011,0.079,0.0487,0.0338,0.0189,0.014,0.0176,0.0159,0.016,0.0139,0.0142,0.0124,0.0125,0.0125,0.0125,0.0125,0.0506,0.0557,0.064,0.0746,0.0844,0.0972,0.1066,0.1179,0.13,0.1403,0.1373,0.1346,0.109,0.0702,0.044,0.016,0.0175,0.0065,0.0069,0.0073,0.0079,0.0078,0.0027,0.0027,0.0027,0.0027,0.0027,0,0.0552,0.0612,0.0709,0.0837,0.0952,0.1001,0.1165,0.126,0.1406,0.1481,0.152,0.1272,0.1024,0.0733,0.0318,0.0072,0.0059,-0.0013,0.0026,0.0032,0.0037,0.0043,-0.002,-0.0021,-0.0021,-0.0022,0,0,0.0578,0.0672,0.0721,0.0902,0.1,0.1157,0.1255,0.1387,0.1471,0.1538,0.1519,0.1464,0.1109,0.08,0.0462,0.0222,0.0187,0.0173,0.0235,0.0326,0.0335,0.0102,0.012,0,0,0,0,0]}],[{"header":{"parameterUnit":"m.s-1","parameterCategory":2,"la1":30.2991,"la2":30.254,"lo1":-89.0895,"lo2":-89.0444,"dy":0.0017,"dx":0.0017,"nx":28,"ny":28,"refTime":"2026-01-03T03:00:00:Z","depth":"4","parameterNumber":2,"parameterNumberName":"U-component_of_CURRENTS"},"data":[0,0,0,0,0,0,0,0,0,0,0,0,0,0,0,0,0,0,0,0,0,0,0,0,0,0,0,0,0,0,0,0,0,0,0,0,0,0,0,0,0,0,0,0,0,0,0,0,0,0,0,0,0,0,0,0,0,0,0.1405,0.1406,0,0.1423,0.1423,0.1423,0.1458,0.1459,0.146,0.1461,0.1507,0.1507,0.1508,0,0,0,0,0,0,0,0,0,0,0,0,0,0.1386,0.1386,0.1405,0.1406,0.1406,0.1423,0.1423,0.1423,0.1458,0.1459,0.146,0.1461,0.1507,0.1507,0.1508,0,0,0,0,0,0,0,0,0,0,0,0,0,0.1396,0.1386,0.1405,0.1427,0.143,0.1423,0.1423,0.1423,0.1458,0.1459,0.146,0.1461,0.1507,0.1507,0.1508,0.1485,0,0,0.151,0.151,0,0,0,0,0,0,0,0,0.1395,0.1396,0.1424,0.1426,0.1428,0.1442,0.1434,0.1446,0.1457,0.1444,0.1461,0.1462,0.1488,0.149,0.1487,0.1487,0.1489,0.151,0.151,0.151,0.1511,0,0,0,0,0,0,0,0.1395,0.1396,0.141,0.1424,0.1427,0.1431,0.1434,0.1436,0.1457,0.1446,0.1449,0.1454,0.149,0.1486,0.1489,0.149,0.151,0.151,0.1511,0.1511,0.1587,0.1589,0,0,0,0,0,0,0.1396,0.1395,0.141,0.1411,0.1417,0.1431,0.1434,0.1434,0.1457,0.1462,0.1453,0.1456,0.1485,0.1488,0.149,0.1565,0.151,0.1511,0.1511,0.1585,0.1587,0.1589,0,0,0,0,0,0,0.1396,0.1397,0.1409,0.1406,0.1408,0.143,0.143,0.1434,0.1466,0.1462,0.1468,0.1485,0.1486,0.149,0.1524,0.1563,0.1511,0.1512,0.1584,0.1586,0.1588,0.1649,0,0,0,0,0,0,0.1395,0.1397,0.1413,0.1405,0.1408,0.143,0.1429,0.1433,0.1466,0.147,0.1491,0.1495,0.1487,0.1524,0.1525,0.1563,0.1512,0.1581,0.1585,0.1588,0.1645,0.1653,0.166,0,0,0,0,0,0.1394,0.1403,0.1413,0.1416,0.1424,0.1432,0.1434,0.1452,0.1466,0.1485,0.1502,0.1496,0.1545,0.1525,0.1526,0.1565,0.158,0.1584,0.1587,0.1641,0.1651,0.166,0,0,0,0,0,0,0.1404,0.1407,0.1418,0.1429,0.1444,0.1439,0.146,0.147,0.1495,0.1512,0.1508,0.1513,0.1564,0.1553,0.1532,0.1598,0.1565,0.1569,0.1605,0.1615,0.1622,0.1628,0.1513,0,0,0,0,0,0.1413,0.1423,0.1428,0.1443,0.1453,0.1463,0.1475,0.1489,0.1503,0.1517,0.1531,0.155,0.1572,0.1586,0.1601,0.1627,0.1629,0.1656,0.1664,0.1671,0.1677,0.1718,0.173,0.1602,0.1602,0.1601,0,0,0.1422,0.1426,0.1434,0.1448,0.1461,0.1474,0.1475,0.1503,0.1525,0.1517,0.1562,0.1582,0.1588,0.1626,0.1647,0.1626,0.1708,0.1675,0.1681,0.1684,0.1723,0.1735,0.1746,0.1604,0.1604,0.1603,0,0,0.1432,0.1451,0.1461,0.1474,0.1502,0.1507,0.1524,0.1541,0.1566,0.1602,0.1612,0.1654,0.1677,0.1692,0.1699,0.1757,0.1753,0.1772,0.1809,0.1849,0.1859,0.1869,0.1885,0.1896,0.1769,0.1769,0.177,0,0.1449,0.1455,0.1468,0.1481,0.1499,0.1525,0.1544,0.1565,0.1596,0.1626,0.1631,0.1699,0.1706,0.1753,0.1779,0.1775,0.1792,0.1771,0.1859,0.1868,0.1877,0.1891,0.1902,0.1773,0.1772,0.1772,0.1772,0,0.1452,0.1474,0.1484,0.1507,0.153,0.1554,0.1582,0.1621,0.1658,0.1682,0.1756,0.1771,0.1813,0.1826,0.1819,0.1891,0.1881,0.1868,0.1833,0.1893,0.1904,0.1915,0.1778,0.1776,0.1775,0.1775,0,0,0.1445,0.1479,0.1487,0.1504,0.1549,0.1562,0.1616,0.1665,0.1709,0.176,0.1817,0.1867,0.1898,0.1909,0.1917,0.1948,0.2021,0.1941,0.1941,0.1953,0.2104,0.1959,0.1955,0.2032,0.2034,0.2036,0.2086,0,0.1449,0.1471,0.1494,0.1531,0.1545,0.1595,0.1636,0.1693,0.175,0.1812,0.1862,0.1922,0.1922,0.1957,0.1993,0.2021,0.2052,0.2007,0.2047,0.2048,0.1909,0.1964,0.2043,0.2093,0.2096,0.2097,0.2099,0,0.1438,0.1457,0.149,0.154,0.1555,0.159,0.1674,0.1718,0.1814,0.1863,0.1944,0.1983,0.2058,0.204,0.2124,0.2102,0.2115,0.2122,0.2124,0.1974,0.1921,0.2022,0.2116,0.2115,0.2114,0.2113,0.2111,0,0.1404,0.1451,0.1481,0.1497,0.1559,0.1603,0.1653,0.1746,0.1795,0.1913,0.1965,0.2055,0.2113,0.2154,0.2187,0.2171,0.2258,0.2232,0.2109,0.2098,0.2187,0.2176,0.2286,0.2286,0.2286,0.2286,0.2285,0,0.1375,0.1402,0.1473,0.1485,0.1535,0.1595,0.167,0.1735,0.1835,0.1898,0.1999,0.2053,0.2151,0.2207,0.2218,0.2194,0.229,0.2123,0.2106,0.221,0.2201,0.2193,0.2182,0.2287,0.2287,0.2287,0.2286,0,0.1324,0.1369,0.1406,0.1486,0.1518,0.1561,0.1668,0.1713,0.1827,0.1912,0.1956,0.2082,0.2157,0.2217,0.2285,0.2219,0.2215,0.218,0.229,0.2277,0.2019,0.201,0.2042,0.2037,0.2033,0.203,0.2027,0,0.1291,0.1306,0.1398,0.1424,0.1467,0.1543,0.1588,0.1702,0.1751,0.1909,0.1934,0.2056,0.2124,0.2103,0.2179,0.2182,0.2153,0.2128,0.2066,0.2016,0.1997,0.1994,0.1991,0.2021,0.202,0.2019,0.2018,0,0.123,0.1281,0.1312,0.137,0.1424,0.1467,0.1547,0.1565,0.1696,0.1816,0.1866,0.1901,0.1977,0.2019,0.2038,0.2036,0.213,0.2086,0.2094,0.2035,0.1991,0.1976,0.1977,0.2004,0.2006,0.2007,0.2008,0,0.1191,0.12,0.1254,0.1295,0.1355,0.1365,0.1418,0.1467,0.1525,0.1693,0.1712,0.184,0.1964,0.1945,0.1965,0.195,0.1911,0.183,0.1849,0.1865,0.1782,0.1698,0.1613,0,0,0,0,0,0.1138,0.1135,0.1168,0.1193,0.1249,0.1286,0.1371,0.1427,0.1557,0.1546,0.1619,0.168,0.1714,0.1783,0.1731,0.1878,0.1914,0.1806,0.1829,0.1929,0.1945,0.1861,0,0,0,0,0,0,0.1096,0.1122,0.1133,0.1104,0.1107,0.1148,0.1199,0.1285,0.1284,0.1429,0.1462,0.1571,0.1636,0.1732,0.17,0.1717,0.1691,0.1887,0.1882,0.192,0.1934,0.1947,0.1867,0,0,0,0,0]},{"header":{"parameterUnit":"m.s-1","parameterCategory":2,"la1":30.2991,"la2":30.254,"lo1":-89.0895,"lo2":-89.0444,"dy":0.0017,"dx":0.0017,"nx":28,"ny":28,"refTime":"2026-01-03T03:00:00:Z","depth":"4","parameterNumber":3,"parameterNumberName":"V-component_of_CURRENTS"},"data":[0,0,0,0,0,0,0,0,0,0,0,0,0,0,0,0,0,0,0,0,0,0,0,0,0,0,0,0,0,0,0,0,0,0,0,0,0,0,0,0,0,0,0,0,0,0,0,0,0,0,0,0,0,0,0,0,0,0,0.0138,0.0138,0,0.0131,0.0131,0.0131,0.0125,0.0125,0.0124,0.0124,0.0113,0.0113,0.0113,0,0,0,0,0,0,0,0,0,0,0,0,0,0.0126,0.0126,0.0138,0.0138,0.0137,0.0131,0.0131,0.0131,0.0125,0.0125,0.0124,0.0124,0.0113,0.0113,0.0113,0,0,0,0,0,0,0,0,0,0,0,0,0,0.0127,0.0127,0.0138,0.0133,0.0133,0.0131,0.0131,0.0131,0.0125,0.0125,0.0124,0.0124,0.0113,0.0113,0.0113,0.0115,0,0,0.0112,0.0112,0,0,0,0,0,0,0,0,0.0127,0.0128,0.0134,0.0133,0.0133,0.0128,0.0122,0.0125,0.0125,0.0128,0.0124,0.0124,0.0117,0.0117,0.0117,0.0114,0.0114,0.0112,0.0112,0.0112,0.0112,0,0,0,0,0,0,0,0.0127,0.0128,0.0136,0.0134,0.0133,0.0124,0.0125,0.0123,0.0124,0.0128,0.0127,0.0126,0.0117,0.0117,0.0116,0.0114,0.0112,0.0112,0.0111,0.0111,0.0117,0.0117,0,0,0,0,0,0,0.0128,0.0128,0.0136,0.0135,0.0129,0.0125,0.0125,0.013,0.0125,0.0123,0.0126,0.0125,0.0118,0.0117,0.0116,0.013,0.0112,0.0111,0.0111,0.0116,0.0117,0.0117,0,0,0,0,0,0,0.0128,0.0129,0.0136,0.013,0.0131,0.0125,0.0131,0.013,0.0131,0.0123,0.0122,0.0128,0.0117,0.0116,0.012,0.0129,0.0111,0.0111,0.0116,0.0116,0.0117,0.0151,0,0,0,0,0,0,0.0128,0.0129,0.0134,0.0131,0.0131,0.0142,0.0131,0.013,0.013,0.0129,0.0124,0.0123,0.0117,0.0121,0.012,0.0129,0.0111,0.0116,0.0116,0.0117,0.0149,0.0152,0.0155,0,0,0,0,0,0.0127,0.0137,0.0134,0.0135,0.0138,0.0142,0.0142,0.0137,0.013,0.0136,0.0132,0.0123,0.0124,0.0121,0.012,0.0129,0.0115,0.0116,0.0117,0.0148,0.0152,0.0155,0,0,0,0,0,0,0.0133,0.0137,0.0134,0.0144,0.0145,0.0141,0.0145,0.0139,0.014,0.014,0.0129,0.0128,0.0134,0.0126,0.0123,0.0131,0.0117,0.0117,0.0141,0.0145,0.0147,0.0156,0.0111,0,0,0,0,0,0.0137,0.0146,0.0145,0.0153,0.0155,0.0149,0.015,0.0148,0.0147,0.0147,0.0141,0.0136,0.0136,0.0136,0.0134,0.014,0.012,0.0143,0.0146,0.0149,0.0155,0.013,0.0131,0.0119,0.0119,0.0119,0,0,0.014,0.0144,0.0148,0.0155,0.0155,0.0165,0.015,0.0156,0.0167,0.0146,0.0157,0.0146,0.014,0.0147,0.0149,0.0142,0.0141,0.0149,0.0152,0.0156,0.013,0.0131,0.0132,0.012,0.012,0.0119,0,0,0.0155,0.0157,0.017,0.0175,0.0179,0.0178,0.0181,0.0179,0.0182,0.0192,0.0178,0.0172,0.0173,0.0168,0.0166,0.0182,0.0157,0.018,0.0203,0.0179,0.0179,0.018,0.0153,0.0151,0.0182,0.0182,0.0182,0,0.0159,0.0178,0.0174,0.0189,0.0198,0.0185,0.0205,0.0207,0.0206,0.0211,0.0202,0.0195,0.0184,0.0192,0.0197,0.0189,0.017,0.0192,0.0182,0.0182,0.0182,0.0154,0.0152,0.0183,0.0183,0.0183,0.0183,0,0.0185,0.0201,0.021,0.0227,0.0235,0.025,0.0253,0.0259,0.0256,0.0254,0.0259,0.0241,0.0237,0.0229,0.022,0.0216,0.02,0.0188,0.0174,0.0185,0.0155,0.0152,0.0186,0.0185,0.0185,0.0184,0,0,0.0194,0.0223,0.0227,0.0247,0.026,0.0273,0.0291,0.0305,0.0321,0.0309,0.0323,0.031,0.029,0.0286,0.0266,0.0244,0.022,0.0218,0.0216,0.0193,0.0163,0.0144,0.0138,0.0205,0.0204,0.0204,0.0141,0,0.0217,0.0258,0.0265,0.0305,0.0329,0.0329,0.0352,0.0362,0.0362,0.037,0.0345,0.035,0.0316,0.0315,0.0286,0.0241,0.0213,0.0238,0.0155,0.0152,0.0135,0.0134,0.0203,0.0138,0.0137,0.0137,0.0136,0,0.024,0.0269,0.0315,0.0358,0.0369,0.039,0.0424,0.0445,0.0447,0.0448,0.0434,0.0409,0.0381,0.0349,0.027,0.0288,0.023,0.0187,0.0183,0.0153,0.0127,0.0125,0.0129,0.013,0.013,0.0131,0.0131,0,0.0257,0.0304,0.0346,0.036,0.0403,0.0427,0.0451,0.0467,0.0498,0.0496,0.0506,0.046,0.0449,0.0369,0.0274,0.0273,0.0181,0.0166,0.0092,0.0089,0.011,0.011,0.0105,0.0105,0.0106,0.0106,0.0106,0,0.028,0.0315,0.036,0.0385,0.0443,0.0462,0.0521,0.0532,0.0561,0.0601,0.0549,0.0557,0.0454,0.0386,0.029,0.0179,0.0188,0.0096,0.0073,0.0125,0.0128,0.0107,0.0108,0.0103,0.0104,0.0104,0.0105,0,0.0292,0.0319,0.0374,0.0431,0.0454,0.0499,0.0576,0.0621,0.0633,0.068,0.0683,0.0634,0.0546,0.0426,0.0298,0.021,0.0099,0.0055,0.012,0.0102,0.0019,0.0023,-0.003,-0.0031,-0.0032,-0.0033,-0.0034,0,0.0301,0.0331,0.0409,0.0453,0.0483,0.0556,0.0613,0.0656,0.0705,0.0728,0.0751,0.0681,0.0629,0.0433,0.0301,0.0108,0.0078,0.0013,0.0014,0.0023,0.0006,0.0011,0.0016,-0.0035,-0.0035,-0.0036,-0.0036,0,0.0321,0.0349,0.0398,0.0489,0.0557,0.0641,0.0719,0.0757,0.0811,0.0818,0.0805,0.0702,0.0601,0.0441,0.0289,0.0151,0.0051,0.0002,0.0003,0.0004,0.0016,0.0001,0.0007,-0.0039,-0.0039,-0.0038,-0.0038,0,0.0337,0.0374,0.0442,0.0524,0.0612,0.07,0.0742,0.08,0.0845,0.0859,0.0855,0.0737,0.0676,0.0464,0.0325,0.0183,0.0146,0.0092,0.0088,0.009,0.0137,0.0171,0.0145,0,0,0,0,0,0.0354,0.04,0.0475,0.0567,0.0656,0.0711,0.0805,0.0843,0.0885,0.0883,0.087,0.0773,0.057,0.0484,0.0339,0.0297,0.0115,0.0121,0.005,-0.0058,-0.0054,-0.0021,0,0,0,0,0,0,0.0365,0.0434,0.0473,0.0589,0.0657,0.0762,0.0825,0.0858,0.0857,0.0869,0.0765,0.072,0.0524,0.0649,0.033,0.0289,0.0219,0.0031,0.0027,-0.006,-0.0057,-0.0054,-0.0019,0,0,0,0,0]}]]